Weather in Nova Astrahan

Ukraine / Luhansk Region     49°07′39″N   38°36′37″E
temp.,
°C
wind,
m/s
gust,
m/s
humid.,
%
clouds,
%
prec.,
mm/h
press.,
hPa
HPBL,
m
26 october, tue
tue2600:000n11555 0.0 103410
03:00−1nw11580 0.0 103410
06:00−1wsw11630 0.0 103510
09:00+2wsw12505 0.0 1034157
12:00+7wsw223550 0.0 1034776
15:00+8sw332966 0.0 1032901
18:00+4ssw22375 0.0 103211
21:00+3ssw22395 0.0 103210
27 october, wed
wed2700:00+2ssw22405 0.0 103113
03:00+1ssw22425 0.0 103114
06:000sw22485 0.0 103015
09:00+3sw35395 0.0 1030198
12:00+9ssw45260 0.0 1027660
15:00+11sw46200 0.0 1025983
18:00+6sw33300 0.0 102426
21:00+4wsw33370 0.0 102431
28 october, thu
thu2800:00+3wsw3447100 0.0 102445
03:00+3wsw3659100 0.0 1023101
06:00+3w357795 0.0 102382
09:00+6wsw4774100 0.0 1024211
12:00+10wsw5860100 0.0 1022488
15:00+11wsw5955100 0.0 1020611
18:00+11wsw51157100 0.0 1019498
21:00+12w51164100 0.3 1018518
29 october, fri
fri2900:00+11nw51077100 0.1 1019475
03:00+10nw5108750 0.1 1020418
06:00+8nnw4109046 0.0 1022365
09:00+9nne61082100 0.0 1025664
12:00+9nne6765100 0.0 1027955
15:00+11ne56470 0.0 10281143
18:00+7ne34591 0.0 103145
21:00+4ne37635 0.0 1032127
30 october, sat
sat3000:00+3ene35680 0.0 103477
03:00+1e22735 0.0 103524
06:000e22735 0.0 103624
09:00+3ese34570 0.0 1037195
12:00+8se34350 0.0 1037609
15:00+10se33250 0.0 1036686
18:00+5se23315 0.0 103616
21:00+3se33340 0.0 103622